Wind_Speed
50 48 57 62 60 58 66 88 99 100 99 96 94 94 95 98 101 101 107 109 105 97 97 97 95 91 99 89 92 93 84 84 88 92 92 88 83 80 80 77 75 75 72 71
48 48 53 65 61 57 61 66 74 85 95 102 100 98 98 99 99 100 99 98 103 105 106 107 106 96 94 99 98 88 84 88 85 87 87 86 86 85 83 81 79 79 77 75
48 52 50 49 64 64 61 62 64 68 77 84 103 104 101 98 97 98 101 99 96 96 103 111 110 103 103 104 96 88 86 85 84 75 84 89 86 84 83 83 82 82 81 81
56 48 48 44 52 68 67 63 59 69 74 81 88 96 101 103 102 101 101 101 100 99 99 101 106 109 111 102 95 85 78 82 76 84 84 91 89 84 85 85 85 87 88 86
57 52 47 47 48 62 67 63 60 57 67 78 82 79 85 92 98 102 109 106 101 102 100 101 102 103 104 107 101 98 88 96 90 82 85 86 88 87 88 90 85 92 91 90
63 55 47 47 47 52 58 56 55 49 51 58 69 69 74 81 88 96 103 111 113 109 105 103 101 100 98 99 105 110 105 97 83 91 84 79 77 84 85 92 91 95 95 95
64 58 50 49 46 48 49 48 43 41 41 42 49 54 60 71 84 96 103 105 111 118 112 111 105 101 96 100 97 104 106 98 93 88 94 97 95 94 94 94 96 98 96 99
60 57 48 46 44 47 47 41 35 35 34 34 35 37 38 53 57 83 102 108 107 113 118 114 108 103 101 100 98 95 96 102 95 97 95 90 91 92 89 91 91 96 91 96
55 54 52 46 44 45 42 35 35 33 32 28 27 24 25 40 59 81 89 103 113 108 114 115 111 109 105 101 96 95 91 94 96 93 90 92 84 81 81 87 88 87 87 91
53 56 50 47 43 43 39 37 29 30 26 24 26 24 19 29 43 55 65 78 102 113 108 109 109 111 108 103 97 95 95 94 91 95 95 89 79 83 87 93 101 101 101 103
51 53 49 44 38 42 40 35 28 26 23 21 24 24 18 25 25 36 50 63 79 101 109 105 105 107 108 104 101 96 96 92 91 90 88 81 84 85 87 87 91 100 98 94
50 49 45 42 38 40 40 37 32 24 24 24 20 18 15 21 38 27 33 47 64 84 102 106 101 103 103 102 97 96 95 94 95 97 96 94 100 94 95 96 96 100 98 99
51 49 43 36 32 37 41 41 35 29 29 24 24 23 23 39 44 32 26 32 46 65 84 102 102 101 101 100 98 95 96 100 99 100 99 101 97 89 88 91 96 100 105 106
54 51 42 39 36 36 39 41 39 35 31 27 28 29 30 30 35 33 30 29 32 45 65 86 103 102 103 99 97 98 96 101 101 103 102 105 103 104 109 110 109 108 107 108
52 49 44 40 37 35 42 41 43 39 35 30 30 29 25 27 30 31 35 35 33 34 49 70 90 103 103 98 99 100 100 100 102 106 104 105 105 101 101 102 104 107 112 113
50 48 45 43 40 37 42 45 43 43 41 38 36 32 29 29 29 32 34 34 36 36 39 49 75 95 102 100 99 101 102 104 101 100 106 103 105 105 106 111 112 115 117 121
43 49 49 46 43 41 41 43 46 45 46 45 46 37 37 35 29 31 30 33 35 36 39 43 51 74 96 101 101 101 102 104 105 106 102 102 101 105 108 114 116 122 123 121
58 50 50 49 48 45 36 41 44 48 48 49 46 46 44 42 38 35 34 32 32 34 37 40 45 52 65 86 99 101 99 100 101 102 103 103 100 104 110 115 114 116 111 112
59 56 56 52 51 46 46 42 42 44 49 50 49 49 48 49 46 45 44 40 39 38 37 39 43 47 53 62 72 81 85 88 90 94 98 95 97 94 94 95 95 94 95 99
58 60 53 56 50 52 50 50 44 44 44 47 50 53 54 54 52 51 51 49 48 47 46 47 46 45 48 52 57 61 65 68 71 73 75 75 74 76 79 84 88 91 95 100
59 55 54 53 53 50 52 51 49 48 48 50 50 51 55 58 58 57 57 57 57 56 56 55 54 54 53 53 53 53 54 56 58 60 62 67 71 75 79 85 89 93 95 93
66 49 46 46 49 49 48 48 48 49 50 49 50 50 51 54 57 58 60 62 62 62 61 61 61 60 59 59 58 57 57 59 59 61 64 67 70 75 78 79 75 72 77 79
64 61 57 54 52 50 48 49 47 48 49 51 51 48 46 45 45 48 55 58 60 62 64 64 64 64 63 63 62 62 62 61 62 64 64 60 59 57 55 56 62 70 74 78
67 59 56 57 54 51 49 49 51 50 51 52 51 48 46 45 44 42 42 45 48 49 50 49 52 52 50 49 47 46 44 41 38 34 34 33 35 41 48 54 59 64 71 76
65 60 55 51 51 50 53 53 54 56 54 53 52 49 47 44 42 38 36 35 37 36 36 35 31 28 27 25 22 20 20 17 14 15 21 28 35 39 40 44 54 56 61 65
64 61 57 52 46 46 46 46 48 50 52 52 50 48 44 40 37 32 30 29 27 27 24 22 21 21 20 23 26 21 17 10 8 12 17 21 26 34 37 44 47 50 53 46
Wind_Direction
245 249 241 235 238 241 242 241 237 238 240 237 234 232 232 234 235 233 232 234 233 228 233 236 237 241 240 240 244 243 251 254 253 253 256 258 258 257 256 257 259 261 261 264
247 243 246 238 235 237 239 240 240 242 243 242 240 233 233 234 235 235 235 233 235 233 230 231 234 236 241 245 244 250 252 254 254 255 257 259 261 262 262 261 261 263 265 268
241 243 243 249 238 235 237 238 240 243 244 244 245 241 237 236 237 237 235 234 235 234 231 231 230 234 236 242 245 249 252 247 251 255 258 257 259 262 263 265 265 266 266 267
235 242 242 245 240 235 237 239 240 242 245 247 246 247 245 242 237 237 237 235 233 236 234 234 233 230 233 236 241 240 241 247 253 256 260 261 262 263 263 263 264 265 266 269
234 233 240 242 243 234 235 240 240 244 248 252 253 248 245 243 241 237 236 235 235 235 236 236 236 232 233 233 236 235 240 239 245 250 258 257 264 263 262 265 268 268 273 273
233 229 234 238 245 236 235 239 241 250 258 262 259 254 247 242 238 234 232 231 231 234 235 237 238 237 232 235 236 235 236 240 246 249 245 253 257 262 264 269 267 271 274 276
230 225 227 234 242 237 237 238 243 255 262 266 262 254 240 234 233 232 231 229 227 228 232 235 236 238 236 235 235 236 237 235 242 246 247 251 255 257 259 266 268 271 275 274
227 223 225 234 238 234 235 236 248 261 264 270 260 257 243 232 218 230 228 227 226 226 227 231 234 237 237 238 236 237 238 238 243 245 249 253 258 266 266 266 262 270 270 270
219 218 223 230 234 234 234 234 244 262 265 275 270 263 231 228 234 234 230 225 225 226 225 227 231 235 237 239 241 240 239 240 241 243 249 253 257 260 260 266 269 266 270 275
214 217 218 226 232 229 228 232 242 258 267 271 275 276 256 231 232 243 240 232 227 226 226 225 227 232 235 237 240 243 242 240 241 247 250 247 254 269 267 269 266 269 272 272
208 213 217 224 229 225 222 230 237 251 255 266 268 276 293 292 263 240 237 233 228 226 226 226 227 229 233 235 238 241 245 244 244 248 250 248 249 256 261 266 269 270 273 276
204 210 215 221 226 225 222 226 228 234 248 248 258 256 234 294 281 262 246 236 228 225 224 226 228 229 232 235 238 241 245 249 249 248 250 254 254 259 261 261 264 268 266 272
200 205 212 216 224 225 225 227 228 229 234 231 235 241 235 196 245 262 255 246 237 229 225 225 227 229 231 234 237 239 243 247 248 249 251 251 252 252 256 260 262 264 265 268
200 204 204 211 217 220 224 229 231 232 236 235 232 231 234 243 252 260 264 254 242 238 230 226 226 228 232 233 236 239 242 245 248 251 252 254 258 259 260 261 263 268 270 270
201 206 208 213 217 220 219 221 230 235 236 239 242 249 245 242 245 250 252 257 256 243 238 232 226 228 231 233 235 238 242 247 249 250 255 256 259 262 262 264 268 268 273 274
202 207 210 216 218 219 222 219 221 229 236 240 240 239 241 240 241 243 247 251 252 251 246 239 232 229 230 234 237 240 243 247 250 253 257 262 264 265 262 267 269 272 275 271
200 210 213 218 220 221 226 224 222 223 227 233 240 238 243 245 242 245 245 247 248 252 250 244 241 237 234 236 239 242 245 249 251 255 261 265 269 269 268 269 272 274 276 277
205 209 214 218 221 223 225 228 227 228 228 231 235 240 242 244 247 249 251 252 250 248 248 250 249 245 242 242 242 245 248 252 256 260 263 266 269 269 269 272 272 275 275 276
214 215 216 219 222 222 227 230 232 232 235 234 233 237 239 241 243 247 248 247 249 250 250 248 247 247 247 247 246 248 251 254 258 261 263 264 267 269 273 274 275 275 277 279
219 220 222 219 222 227 230 231 232 237 240 241 241 241 241 241 242 245 245 247 247 248 248 249 251 251 252 253 254 255 257 259 260 263 265 267 269 269 272 273 276 279 282 284
222 221 220 222 224 229 234 235 237 240 241 243 245 246 247 247 246 245 249 248 249 250 250 251 252 253 253 254 254 255 257 259 261 263 265 267 270 273 277 280 283 285 288 288
228 223 222 226 226 232 234 237 241 244 246 248 249 250 253 254 252 250 251 252 250 251 253 253 254 256 257 259 261 262 264 265 267 269 271 273 276 277 280 283 286 286 288 292
234 233 234 231 229 231 236 242 248 250 250 252 254 259 262 263 261 257 253 253 255 258 259 259 260 259 259 260 261 262 263 265 266 269 273 272 274 275 279 287 290 289 294 296
234 237 237 235 235 236 238 244 248 250 253 256 258 260 264 265 265 264 259 255 255 256 258 259 260 264 264 263 262 262 262 259 256 253 255 264 274 283 288 290 291 297 300 301
241 243 245 241 240 238 240 245 250 252 255 256 259 263 265 266 266 265 263 260 258 257 256 256 252 247 242 240 235 216 209 212 221 250 269 279 288 292 299 306 307 311 310 309
241 247 251 251 245 246 245 242 245 249 254 256 257 259 259 259 261 258 259 255 250 246 237 230 221 216 205 181 175 176 180 201 250 280 292 300 310 311 316 319 323 325 323 324
Height
10602 10606 10609 10606 10612 10620 10626 10632 10637 10643 10650 10661 10676 10685 10689 10692 10697 10715 10725 10733 10748 10766 10770 10773 10779 10787 10793 10802 10801 10805 10821 10824 10830 10834 10836 10840 10845 10847 10849 10852 10856 10856 10859 10859
10591 10595 10590 10596 10603 10608 10609 10613 10619 10627 10635 10644 10649 10660 10666 10673 10686 10699 10710 10722 10728 10744 10751 10751 10755 10785 10783 10781 10777 10804 10808 10807 10812 10816 10821 10824 10826 10830 10834 10838 10844 10844 10846 10845
10577 10576 10582 10586 10590 10594 10594 10599 10606 10615 10617 10622 10625 10638 10650 10663 10672 10681 10693 10704 10709 10721 10723 10724 10751 10761 10761 10756 10776 10788 10791 10791 10794 10802 10804 10809 10813 10814 10819 10823 10829 10830 10831 10829
10560 10564 10571 10574 10576 10576 10582 10585 10598 10600 10600 10601 10608 10616 10625 10635 10651 10659 10665 10681 10692 10698 10706 10710 10724 10738 10739 10739 10762 10774 10776 10777 10780 10785 10792 10794 10796 10801 10806 10807 10809 10812 10812 10813
10548 10548 10557 10562 10561 10562 10568 10577 10583 10587 10587 10584 10585 10597 10599 10606 10618 10634 10645 10655 10670 10674 10684 10692 10699 10713 10724 10738 10742 10750 10754 10763 10769 10773 10778 10778 10780 10786 10792 10790 10796 10794 10795 10795
10527 10536 10544 10549 10548 10552 10554 10565 10570 10573 10573 10565 10563 10570 10576 10583 10595 10599 10609 10622 10642 10653 10666 10669 10683 10696 10712 10715 10722 10730 10735 10745 10753 10756 10763 10765 10769 10768 10774 10775 10780 10780 10780 10778
10508 10521 10531 10535 10538 10540 10545 10553 10560 10563 10559 10551 10547 10548 10551 10558 10565 10576 10587 10600 10613 10625 10643 10650 10662 10671 10693 10695 10705 10708 10722 10730 10735 10739 10748 10752 10757 10756 10761 10765 10763 10765 10761 10764
10497 10512 10521 10525 10527 10529 10535 10544 10550 10548 10546 10541 10539 10534 10543 10544 10546 10542 10558 10579 10590 10603 10618 10632 10647 10656 10666 10675 10686 10695 10705 10716 10722 10730 10734 10736 10737 10743 10743 10749 10745 10747 10748 10747
10486 10497 10507 10513 10515 10521 10528 10537 10535 10538 10536 10535 10531 10528 10533 10533 10536 10530 10542 10556 10569 10584 10600 10615 10631 10642 10651 10660 10672 10683 10691 10698 10709 10716 10719 10721 10722 10727 10732 10733 10730 10730 10730 10730
10475 10484 10496 10501 10506 10513 10520 10523 10530 10529 10531 10527 10525 10524 10524 10527 10530 10530 10539 10548 10557 10571 10586 10600 10615 10627 10637 10649 10658 10666 10674 10682 10691 10697 10701 10704 10708 10710 10713 10714 10712 10712 10712 10712
10466 10476 10486 10493 10500 10503 10511 10517 10521 10523 10524 10523 10525 10525 10525 10521 10524 10525 10526 10532 10543 10557 10574 10586 10600 10615 10624 10633 10643 10653 10659 10669 10676 10680 10683 10687 10691 10693 10696 10695 10694 10693 10695 10693
10459 10468 10478 10482 10489 10495 10503 10507 10513 10517 10519 10521 10522 10525 10529 10533 10520 10523 10523 10527 10534 10545 10559 10575 10588 10603 10613 10622 10633 10640 10648 10654 10657 10662 10667 10669 10672 10675 10677 10679 10679 10679 10675 10674
10450 10460 10467 10478 10481 10488 10493 10499 10505 10509 10509 10513 10517 10521 10524 10527 10521 10521 10522 10523 10528 10537 10548 10562 10577 10589 10599 10608 10618 10627 10632 10634 10639 10643 10648 10649 10652 10657 10661 10661 10661 10659 10656 10655
10441 10450 10459 10467 10472 10479 10486 10491 10496 10499 10502 10506 10507 10513 10516 10519 10519 10520 10519 10521 10525 10530 10538 10549 10562 10575 10583 10595 10604 10609 10615 10616 10623 10626 10630 10634 10638 10640 10640 10643 10643 10640 10637 10633
10436 10445 10453 10458 10464 10472 10478 10483 10488 10493 10496 10498 10500 10503 10509 10512 10514 10515 10517 10518 10522 10526 10532 10539 10550 10560 10571 10581 10586 10593 10596 10603 10606 10609 10615 10618 10621 10624 10625 10624 10622 10619 10614 10611
10430 10438 10444 10450 10458 10465 10467 10475 10480 10485 10489 10493 10497 10501 10504 10506 10508 10510 10512 10516 10519 10524 10525 10531 10539 10548 10559 10567 10573 10579 10584 10587 10593 10596 10597 10604 10606 10610 10608 10604 10600 10597 10592 10588
10430 10430 10435 10442 10449 10456 10460 10467 10472 10477 10482 10486 10488 10497 10496 10498 10503 10504 10509 10512 10515 10518 10522 10527 10532 10540 10548 10555 10560 10565 10571 10574 10580 10583 10588 10590 10591 10590 10587 10584 10580 10574 10568 10561
10414 10421 10428 10433 10441 10448 10458 10455 10463 10468 10473 10477 10485 10487 10491 10494 10496 10501 10503 10506 10509 10513 10517 10521 10525 10530 10536 10542 10548 10552 10559 10564 10569 10571 10573 10573 10573 10570 10568 10563 10558 10549 10539 10534
10404 10411 10416 10425 10434 10443 10443 10449 10454 10459 10462 10468 10473 10476 10482 10485 10491 10495 10496 10500 10502 10505 10508 10511 10515 10519 10524 10530 10535 10541 10547 10552 10554 10556 10557 10557 10557 10552 10548 10541 10533 10524 10517 10511
10395 10401 10409 10419 10427 10432 10438 10439 10447 10449 10454 10457 10462 10466 10470 10473 10483 10482 10486 10490 10493 10496 10499 10502 10506 10510 10514 10519 10523 10528 10533 10536 10539 10541 10540 10540 10538 10534 10529 10521 10514 10507 10497 10484
10384 10396 10403 10413 10420 10424 10428 10434 10439 10442 10446 10447 10450 10455 10458 10464 10469 10473 10473 10478 10481 10484 10487 10491 10496 10501 10505 10510 10514 10518 10522 10524 10525 10526 10527 10525 10522 10517 10510 10501 10493 10484 10472 10458
10381 10390 10400 10405 10412 10415 10421 10426 10429 10433 10436 10437 10440 10444 10448 10450 10456 10460 10462 10464 10468 10471 10474 10478 10482 10487 10492 10496 10500 10505 10507 10508 10511 10511 10510 10507 10504 10499 10492 10485 10477 10466 10454 10441
10376 10384 10391 10397 10403 10406 10413 10416 10419 10423 10425 10427 10430 10434 10438 10440 10442 10445 10448 10451 10455 10458 10462 10465 10470 10473 10477 10481 10485 10488 10491 10494 10495 10495 10494 10492 10489 10486 10481 10476 10466 10451 10439 10423
10366 10375 10382 10388 10397 10400 10405 10406 10408 10412 10414 10417 10421 10424 10426 10428 10430 10433 10435 10437 10442 10445 10449 10452 10454 10458 10461 10464 10468 10472 10475 10477 10480 10482 10484 10485 10484 10480 10475 10466 10451 10440 10423 10406
10359 10366 10373 10380 10384 10391 10394 10397 10399 10401 10404 10407 10410 10413 10415 10417 10419 10421 10423 10427 10430 10434 10438 10441 10444 10448 10452 10456 10460 10464 10468 10473 10477 10479 10480 10480 10477 10471 10465 10453 10439 10427 10407 10388
10351 10356 10362 10368 10375 10381 10383 10387 10390 10391 10392 10396 10399 10402 10405 10407 10409 10412 10415 10418 10422 10426 10429 10434 10438 10442 10447 10452 10457 10463 10468 10472 10474 10475 10475 10473 10468 10461 10453 10441 10429 10413 10393 10375